COSMOS 1275 DEB, 12728

Orbit data source: Space-Track

COSMOS 1275 DEB, 12728 is space debris in LEO originally from a launch on Thu, 04 Jun 1981 UTC launched from the Plesetsk Missile And Space Complex (PKMTR). Debris objects in space refer to the collection of defunct objects orbiting the Earth. Examples of debris include non-operational satellites, rocket bodies, and fragments generated from explosions, collisions, or faulty payload assembly.

Loading next visibility...
Identifier
12728, 1981-053BV
Orbit
LEO
Country
Flag of CISCIS
Related business
Manufacturer
Unknown
Mission
Spacecraft
Bus & Motor
Unknown
Mass
Unknown
Launch date (UTC)
1981-06-04 (45 years ago)
Launch vehicle
Unknown
Launch site
Plesetsk Missile And Space Complex (PKMTR)
Object type
Payload
Rocket body
Debris
Shape & HBR
Unknown shape, 0.2 m
Radar Cross Section
Medium (>0.1 m² and <1 m²)

Expand to show TLE details & history
Last TLE update: 9 hours ago

TLE from 9 hours ago
0 COSMOS 1275 DEB
1 12728U 81053BV  26036.17325558  .00000733  00000-0  70807-3 0  9998
2 12728  82.8089 180.3301 0057089 213.4820 266.1073 13.77958909220111
Epoch: 2026-02-05T04:09Z
TLE epoch observation values (Epoch: 2026-02-05T04:09:29.282Z)
Latitude
60.35117°
Longitude
149.88975°
Altitude
984.499 km
Speed
7.364 km/s
True Right ascension
23h 10m 21s
True Declination
60° 12' 28"
Sunlit
Object was in daylight at epoch
Visualization orbit readout
Latitude
Unknown
Longitude
Unknown
Altitude
Unknown
Speed
Unknown
Apparent Right ascension
Unknown
Apparent Declination
Unknown
Sunlit
N/A
Visualization observer readout
Local Sidereal Time
14:53:21
Azimuth
Unknown
Elevation
Unknown
Doppler factor
Unknown
Orbital elements
Apogee altitude
1,010.225 km
Perigee altitude
926.345 km
Semi-major axis
7,346.422 km
Eccentricity
0.00571
Inclination
82.8089°
RAAN
180.3301°
Arg. of periapsis
213.482°
True anomaly
265.45495°
Mean anomaly
266.1073°
Eccentric anomaly
265.78109°
Mean motion
3.44691 °/min
Orbital period
104.44 mins
BSTAR
0.00070807
Loading maneuver chart data...
Computing Atmospheric mass density...
Loading historical data...
Loading historical data...
Loading historical data...
Loading historical data...
Loading historical data...
Loading historical data...
Loading historical data...

Documentation

Showing up to 5 results
|